ETH819 HAAB-FQMA

Flight info

Callsign ETH819
Flight time N/A
Altitude 36000
Route SHALA3A SHALA UM308 LOTAS UM441 LOSIN UM315 DVL UG656 EGPON EGPON1B
Aircraft B38M/M-SDE1FGHILORVWXY/HB1

Departure

Time 2026-05-08 06:43
Airport Addis Ababa Bole International Airport (HAAB)

Arrival

Time N/A
Airport Maputo Airport (FQMA)
Time Latitude Longitude Altitude Speed Heading
2026-05-08 06:13 8.98023 38.78915 7607 ft 0 kts 343°
2026-05-08 06:32 8.98022 38.78916 7623 ft 2 kts 343°
2026-05-08 06:33 8.97997 38.78923 7623 ft 4 kts 341°
2026-05-08 06:33 8.97971 38.78933 7623 ft 4 kts 338°
2026-05-08 06:33 8.97947 38.78944 7623 ft 4 kts 330°
2026-05-08 06:33 8.97926 38.78960 7623 ft 4 kts 305°
2026-05-08 06:34 8.97921 38.78977 7623 ft 1 kts 253°
2026-05-08 06:38 8.97920 38.78976 7623 ft 1 kts 253°
2026-05-08 06:38 8.97913 38.78950 7623 ft 7 kts 253°
2026-05-08 06:39 8.97891 38.78877 7623 ft 14 kts 253°
2026-05-08 06:39 8.97848 38.78761 7623 ft 19 kts 224°
2026-05-08 06:39 8.97768 38.78654 7623 ft 22 kts 253°
2026-05-08 06:39 8.97750 38.78515 7624 ft 19 kts 303°
2026-05-08 06:40 8.97797 38.78418 7623 ft 19 kts 253°
2026-05-08 06:40 8.97756 38.78277 7623 ft 21 kts 253°
2026-05-08 06:40 8.97680 38.78200 7623 ft 18 kts 184°
2026-05-08 06:40 8.97558 38.78220 7624 ft 19 kts 165°
2026-05-08 06:41 8.97434 38.78254 7624 ft 12 kts 160°
2026-05-08 06:41 8.97414 38.78299 7624 ft 0 kts 75°
2026-05-08 06:42 8.97455 38.78439 7624 ft 47 kts 73°
2026-05-08 06:42 8.97597 38.78924 7623 ft 95 kts 73°
2026-05-08 06:42 8.97827 38.79708 7622 ft 136 kts 73°
2026-05-08 06:42 8.98129 38.80735 7623 ft 169 kts 73°
2026-05-08 06:43 8.98493 38.81948 7750 ft 181 kts 75°
2026-05-08 06:43 8.98833 38.83198 8051 ft 187 kts 78°
2026-05-08 06:43 8.99153 38.84519 8277 ft 202 kts 76°
2026-05-08 06:43 8.99536 38.85902 8716 ft 203 kts 75°
2026-05-08 06:44 8.99914 38.87254 9305 ft 200 kts 74°
2026-05-08 06:44 9.00309 38.88669 9519 ft 219 kts 75°
2026-05-08 06:44 9.00598 38.89701 9648 ft 231 kts 74°
2026-05-08 06:44 9.00643 38.91895 10226 ft 240 kts 114°
2026-05-08 06:45 8.99993 38.92826 10657 ft 245 kts 136°
2026-05-08 06:45 8.98442 38.93602 11116 ft 260 kts 167°
2026-05-08 06:45 8.96609 38.93492 11463 ft 279 kts 199°
2026-05-08 06:45 8.95019 38.92360 11924 ft 288 kts 233°
2026-05-08 06:46 8.93950 38.90588 12274 ft 303 kts 239°
2026-05-08 06:46 8.92794 38.88744 12535 ft 321 kts 237°
2026-05-08 06:46 8.91532 38.86788 12790 ft 340 kts 237°
2026-05-08 06:46 8.90012 38.84894 13150 ft 353 kts 219°
2026-05-08 06:47 8.87894 38.83630 13666 ft 358 kts 199°
2026-05-08 06:47 8.85536 38.82813 14317 ft 361 kts 198°
2026-05-08 06:47 8.83144 38.81978 14868 ft 364 kts 198°
2026-05-08 06:47 8.80737 38.81151 15484 ft 367 kts 198°
2026-05-08 06:48 8.78310 38.80324 16073 ft 370 kts 198°
2026-05-08 06:48 8.75857 38.79492 16656 ft 372 kts 198°
2026-05-08 06:48 8.73400 38.78658 17222 ft 374 kts 198°
2026-05-08 06:48 8.70924 38.77818 17817 ft 376 kts 198°
2026-05-08 06:49 8.68499 38.76996 18346 ft 378 kts 198°
2026-05-08 06:49 8.65941 38.76128 18862 ft 380 kts 198°
2026-05-08 06:49 8.63429 38.75279 19301 ft 382 kts 198°
2026-05-08 06:49 8.60898 38.74423 19730 ft 384 kts 198°
2026-05-08 06:50 8.58358 38.73565 20165 ft 386 kts 198°
2026-05-08 06:50 8.55797 38.72700 20585 ft 389 kts 198°
2026-05-08 06:50 8.53222 38.71830 21003 ft 391 kts 198°
2026-05-08 06:50 8.50641 38.70958 21424 ft 393 kts 198°
2026-05-08 06:51 8.48038 38.70078 21839 ft 395 kts 198°
2026-05-08 06:51 8.45424 38.69196 22244 ft 398 kts 198°
2026-05-08 06:51 8.42788 38.68305 22646 ft 400 kts 198°
2026-05-08 06:51 8.40175 38.67424 23047 ft 402 kts 198°
2026-05-08 06:52 8.37512 38.66525 23432 ft 405 kts 198°
2026-05-08 06:52 8.34835 38.65620 23809 ft 407 kts 198°
2026-05-08 06:52 8.32146 38.64713 24119 ft 409 kts 198°
2026-05-08 06:52 8.29435 38.63799 24441 ft 411 kts 198°
2026-05-08 06:53 8.26719 38.62883 24758 ft 413 kts 198°
2026-05-08 06:53 8.23993 38.61963 25063 ft 415 kts 198°
2026-05-08 06:53 8.21253 38.61038 25372 ft 417 kts 198°
2026-05-08 06:53 8.18525 38.60118 25670 ft 418 kts 198°
2026-05-08 06:54 8.15769 38.59189 25967 ft 420 kts 198°
2026-05-08 06:54 8.12981 38.58249 26270 ft 422 kts 198°
2026-05-08 06:54 8.10186 38.57307 26554 ft 424 kts 198°
2026-05-08 06:54 8.07383 38.56362 26841 ft 426 kts 198°
2026-05-08 06:55 8.04569 38.55414 27129 ft 428 kts 198°
2026-05-08 06:55 8.01736 38.54460 27409 ft 430 kts 198°
2026-05-08 06:55 7.98934 38.53515 27674 ft 432 kts 198°
2026-05-08 06:55 7.96077 38.52553 27962 ft 433 kts 198°
2026-05-08 06:56 7.93210 38.51588 28244 ft 435 kts 198°
2026-05-08 06:56 7.90332 38.50618 28499 ft 437 kts 198°
2026-05-08 06:56 7.87452 38.49648 28764 ft 439 kts 198°
2026-05-08 06:56 7.84543 38.48670 29031 ft 441 kts 198°
2026-05-08 06:57 7.81636 38.47691 29273 ft 442 kts 198°
2026-05-08 06:57 7.78708 38.46706 29523 ft 444 kts 198°
2026-05-08 06:57 7.75774 38.45718 29781 ft 446 kts 198°
2026-05-08 06:57 7.72826 38.44726 30025 ft 447 kts 198°
2026-05-08 06:58 7.69866 38.43730 30264 ft 449 kts 198°
2026-05-08 06:58 7.66936 38.42745 30466 ft 450 kts 198°
2026-05-08 06:58 7.63964 38.41745 30692 ft 451 kts 198°
2026-05-08 06:58 7.60982 38.40743 30902 ft 452 kts 198°
2026-05-08 06:59 7.58001 38.39740 31101 ft 453 kts 198°
2026-05-08 06:59 7.55006 38.38734 31309 ft 455 kts 198°
2026-05-08 06:59 7.51993 38.37721 31501 ft 456 kts 198°
2026-05-08 06:59 7.48985 38.36715 31714 ft 457 kts 197°
2026-05-08 07:00 7.45922 38.35885 31898 ft 458 kts 194°
2026-05-08 07:00 7.42833 38.35063 32088 ft 459 kts 195°
2026-05-08 07:00 7.39780 38.34237 32282 ft 460 kts 195°
2026-05-08 07:00 7.36683 38.33394 32478 ft 461 kts 195°
2026-05-08 07:01 7.33591 38.32551 32663 ft 463 kts 195°
2026-05-08 07:01 7.30480 38.31703 32883 ft 463 kts 195°
2026-05-08 07:01 7.27370 38.30855 33140 ft 462 kts 195°
2026-05-08 07:01 7.24272 38.30011 33406 ft 461 kts 195°
2026-05-08 07:02 7.21178 38.29167 33685 ft 460 kts 195°
2026-05-08 07:02 7.18083 38.28324 33957 ft 459 kts 195°
2026-05-08 07:02 7.15052 38.27498 34210 ft 458 kts 195°
2026-05-08 07:02 7.11942 38.26651 34451 ft 457 kts 195°
2026-05-08 07:03 7.08922 38.25828 34645 ft 456 kts 195°
2026-05-08 07:03 7.05842 38.24989 34842 ft 456 kts 195°
2026-05-08 07:03 7.02782 38.24156 35035 ft 456 kts 195°
2026-05-08 07:03 6.99723 38.23323 35226 ft 455 kts 195°
2026-05-08 07:04 6.96667 38.22491 35426 ft 455 kts 195°
2026-05-08 07:04 6.93612 38.21659 35622 ft 454 kts 195°
2026-05-08 07:04 6.90564 38.20830 35811 ft 454 kts 195°
2026-05-08 07:04 6.87518 38.20001 35987 ft 454 kts 195°
2026-05-08 07:05 6.84477 38.19173 36103 ft 454 kts 195°
2026-05-08 07:05 6.81426 38.18343 36106 ft 453 kts 195°
2026-05-08 07:05 6.75347 38.16690 36097 ft 452 kts 195°
2026-05-08 07:06 6.69265 38.15036 36085 ft 453 kts 195°
2026-05-08 07:06 6.63228 38.13394 36083 ft 453 kts 195°
2026-05-08 07:07 6.57148 38.11742 36070 ft 453 kts 195°
2026-05-08 07:07 6.51060 38.10084 36065 ft 453 kts 195°
2026-05-08 07:08 6.44970 38.08423 36063 ft 454 kts 195°
2026-05-08 07:08 6.38872 38.06761 36058 ft 454 kts 195°
2026-05-08 07:09 6.32810 38.05108 36059 ft 454 kts 195°
2026-05-08 07:09 6.26710 38.03446 36049 ft 454 kts 195°
2026-05-08 07:10 6.20617 38.01787 36049 ft 455 kts 195°
2026-05-08 07:10 6.14509 38.00123 36041 ft 455 kts 195°
2026-05-08 07:11 6.08437 37.98470 36042 ft 455 kts 195°
2026-05-08 07:11 6.02331 37.96807 36038 ft 455 kts 195°
2026-05-08 07:12 5.96217 37.95144 36038 ft 455 kts 195°
2026-05-08 07:12 5.90119 37.93484 36039 ft 455 kts 195°
2026-05-08 07:13 5.84042 37.91831 36034 ft 455 kts 195°
2026-05-08 07:13 5.77925 37.90168 36037 ft 455 kts 195°
2026-05-08 07:14 5.71815 37.88506 36036 ft 455 kts 195°
2026-05-08 07:14 5.65697 37.86843 36033 ft 455 kts 195°
2026-05-08 07:15 5.59579 37.85180 36035 ft 456 kts 195°
2026-05-08 07:15 5.53497 37.83528 36033 ft 456 kts 195°
2026-05-08 07:16 5.47375 37.81864 36035 ft 456 kts 195°
2026-05-08 07:16 5.41251 37.80201 36028 ft 456 kts 195°
2026-05-08 07:17 5.35139 37.78541 36031 ft 455 kts 195°
2026-05-08 07:17 5.29019 37.76879 36027 ft 455 kts 195°
2026-05-08 07:18 5.22940 37.75229 36026 ft 456 kts 195°
2026-05-08 07:18 5.16822 37.73569 36021 ft 456 kts 195°
2026-05-08 07:19 5.10698 37.71907 36022 ft 456 kts 195°
2026-05-08 07:19 5.04606 37.70255 36017 ft 456 kts 195°
2026-05-08 07:20 4.98480 37.68593 36018 ft 456 kts 195°
2026-05-08 07:20 4.92350 37.66931 36013 ft 456 kts 195°
2026-05-08 07:21 4.86220 37.65269 36017 ft 457 kts 195°
2026-05-08 07:21 4.80090 37.63607 36017 ft 456 kts 195°
2026-05-08 07:22 4.73949 37.61943 36017 ft 457 kts 195°
2026-05-08 07:22 4.67869 37.60295 36014 ft 456 kts 195°
2026-05-08 07:23 4.61728 37.58632 36010 ft 456 kts 195°
2026-05-08 07:23 4.55597 37.56971 36010 ft 457 kts 195°
2026-05-08 07:24 4.49468 37.55311 36008 ft 456 kts 195°
2026-05-08 07:24 4.43388 37.53664 36001 ft 456 kts 195°
2026-05-08 07:25 4.37254 37.52004 36002 ft 456 kts 195°
2026-05-08 07:26 4.28057 37.49514 36001 ft 456 kts 195°
2026-05-08 07:26 4.21934 37.47857 35993 ft 456 kts 195°
2026-05-08 07:27 4.15834 37.46206 35988 ft 456 kts 195°
2026-05-08 07:27 4.09715 37.44551 35987 ft 456 kts 195°
2026-05-08 07:28 4.03592 37.42895 35981 ft 456 kts 195°
2026-05-08 07:28 3.97500 37.41160 35976 ft 456 kts 196°
2026-05-08 07:29 3.91411 37.39354 35969 ft 456 kts 196°
2026-05-08 07:29 3.85334 37.37558 35971 ft 455 kts 196°
2026-05-08 07:30 3.79298 37.35775 35967 ft 455 kts 196°
2026-05-08 07:30 3.73227 37.33983 35967 ft 454 kts 196°
2026-05-08 07:31 3.67164 37.32193 35962 ft 454 kts 196°
2026-05-08 07:31 3.61106 37.30404 35959 ft 454 kts 196°
2026-05-08 07:32 3.55083 37.28626 35961 ft 454 kts 196°
2026-05-08 07:32 3.49032 37.26840 35958 ft 453 kts 196°
2026-05-08 07:33 3.42983 37.25055 35957 ft 453 kts 197°
2026-05-08 07:33 3.36941 37.23272 35952 ft 452 kts 197°
2026-05-08 07:34 3.30913 37.21494 35953 ft 452 kts 197°
2026-05-08 07:34 3.24912 37.19724 35948 ft 452 kts 197°
2026-05-08 07:35 3.18874 37.17943 35953 ft 452 kts 197°
2026-05-08 07:35 3.12847 37.16166 35951 ft 452 kts 197°
2026-05-08 07:36 3.06817 37.14388 35956 ft 452 kts 197°
2026-05-08 07:36 3.00818 37.12619 35956 ft 452 kts 197°
2026-05-08 07:37 2.94786 37.10840 35958 ft 452 kts 197°
2026-05-08 07:37 2.88764 37.09065 35958 ft 452 kts 197°
2026-05-08 07:38 2.82723 37.07285 35963 ft 452 kts 197°
2026-05-08 07:38 2.76679 37.05504 35968 ft 452 kts 197°
2026-05-08 07:39 2.70645 37.03726 35965 ft 453 kts 197°
2026-05-08 07:39 2.64648 37.01959 35967 ft 453 kts 197°
2026-05-08 07:40 2.58596 37.00176 35966 ft 453 kts 197°
2026-05-08 07:40 2.52550 36.98395 35970 ft 453 kts 197°
2026-05-08 07:41 2.46506 36.96614 35973 ft 453 kts 197°
2026-05-08 07:41 2.40507 36.94847 35973 ft 453 kts 197°
2026-05-08 07:42 2.34469 36.93069 35974 ft 452 kts 197°
2026-05-08 07:42 2.28431 36.91291 35974 ft 453 kts 197°
2026-05-08 07:43 2.22340 36.89498 35979 ft 453 kts 197°
2026-05-08 07:43 2.16320 36.87726 35982 ft 454 kts 196°
2026-05-08 07:44 2.10263 36.85942 35985 ft 454 kts 196°
2026-05-08 07:44 2.04195 36.84156 35991 ft 454 kts 196°
2026-05-08 07:45 1.98139 36.82373 35987 ft 454 kts 196°
2026-05-08 07:45 1.92104 36.80597 35986 ft 454 kts 196°
2026-05-08 07:46 1.86043 36.78813 35986 ft 455 kts 196°
2026-05-08 07:46 1.79966 36.77025 35987 ft 455 kts 196°
2026-05-08 07:47 1.73878 36.75233 35984 ft 456 kts 196°
2026-05-08 07:47 1.67834 36.73455 35986 ft 456 kts 196°
2026-05-08 07:48 1.61719 36.71655 35984 ft 456 kts 196°
2026-05-08 07:48 1.55664 36.69874 35994 ft 456 kts 196°
2026-05-08 07:49 1.49577 36.68084 35996 ft 456 kts 196°
2026-05-08 07:49 1.43483 36.66291 36002 ft 456 kts 196°
2026-05-08 07:50 1.37390 36.64498 36008 ft 456 kts 196°
2026-05-08 07:50 1.31330 36.62716 36012 ft 457 kts 196°
2026-05-08 07:51 1.25241 36.60924 36015 ft 457 kts 196°
2026-05-08 07:51 1.19144 36.59132 36024 ft 456 kts 196°
2026-05-08 07:52 1.13049 36.57339 36028 ft 456 kts 196°
2026-05-08 07:52 1.06961 36.55549 36026 ft 456 kts 196°
2026-05-08 07:53 1.00920 36.53774 36029 ft 456 kts 195°
2026-05-08 07:53 0.97801 36.53219 36023 ft 454 kts 184°
2026-05-08 07:53 0.94654 36.52929 36034 ft 456 kts 186°
2026-05-08 07:54 0.88348 36.52286 36038 ft 456 kts 186°
2026-05-08 07:54 0.82033 36.51655 36043 ft 456 kts 186°
2026-05-08 07:55 0.75760 36.51030 36050 ft 456 kts 186°
2026-05-08 07:55 0.69449 36.50400 36059 ft 456 kts 186°
2026-05-08 07:56 0.63140 36.49771 36065 ft 456 kts 186°
2026-05-08 07:56 0.56811 36.49140 36071 ft 456 kts 186°
2026-05-08 07:57 0.50491 36.48510 36079 ft 456 kts 186°
2026-05-08 07:57 0.44225 36.47885 36084 ft 456 kts 186°
2026-05-08 07:58 0.37915 36.47256 36091 ft 456 kts 186°
2026-05-08 07:58 0.31599 36.46626 36098 ft 455 kts 186°
2026-05-08 07:59 0.25301 36.45998 36104 ft 456 kts 186°
2026-05-08 07:59 0.19030 36.45373 36117 ft 456 kts 186°
2026-05-08 08:00 0.12729 36.44745 36125 ft 455 kts 186°
2026-05-08 08:00 0.06419 36.44115 36137 ft 455 kts 186°
2026-05-08 08:01 0.00111 36.43486 36152 ft 455 kts 186°
2026-05-08 08:01 -0.06189 36.42858 36157 ft 455 kts 186°
2026-05-08 08:02 -0.12443 36.42235 36162 ft 456 kts 186°
2026-05-08 08:02 -0.18767 36.41604 36170 ft 456 kts 186°
2026-05-08 08:03 -0.25068 36.40975 36178 ft 456 kts 186°
2026-05-08 08:03 -0.31390 36.40345 36188 ft 456 kts 186°
2026-05-08 08:04 -0.37704 36.39716 36191 ft 456 kts 186°
2026-05-08 08:04 -0.43983 36.39089 36192 ft 457 kts 186°
2026-05-08 08:05 -0.50312 36.38459 36196 ft 457 kts 186°
2026-05-08 08:05 -0.56654 36.37826 36196 ft 457 kts 186°
2026-05-08 08:06 -0.62985 36.37209 36196 ft 458 kts 185°
2026-05-08 08:06 -0.69283 36.36595 36198 ft 458 kts 185°
2026-05-08 08:07 -0.75638 36.35975 36195 ft 458 kts 185°
2026-05-08 08:07 -0.81982 36.35356 36197 ft 458 kts 185°
2026-05-08 08:08 -0.88324 36.34713 36199 ft 458 kts 186°
2026-05-08 08:08 -0.94630 36.34071 36197 ft 458 kts 186°
2026-05-08 08:09 -1.00975 36.33425 36199 ft 458 kts 186°
2026-05-08 08:09 -1.07311 36.32781 36194 ft 458 kts 186°
2026-05-08 08:10 -1.13659 36.32143 36191 ft 458 kts 186°
2026-05-08 08:10 -1.20013 36.31509 36189 ft 459 kts 186°
2026-05-08 08:11 -1.26317 36.30879 36182 ft 459 kts 186°
2026-05-08 08:11 -1.32666 36.30245 36174 ft 459 kts 186°
2026-05-08 08:12 -1.39016 36.29611 36167 ft 459 kts 186°
2026-05-08 08:12 -1.45319 36.28983 36160 ft 459 kts 186°
2026-05-08 08:13 -1.51681 36.28348 36156 ft 459 kts 186°
2026-05-08 08:13 -1.58032 36.27715 36147 ft 459 kts 186°
2026-05-08 08:14 -1.64393 36.27080 36140 ft 459 kts 186°
2026-05-08 08:14 -1.70742 36.26447 36131 ft 459 kts 186°
2026-05-08 08:15 -1.77063 36.25816 36120 ft 459 kts 186°
2026-05-08 08:15 -1.83418 36.25182 36115 ft 459 kts 186°
2026-05-08 08:16 -1.89765 36.24548 36109 ft 459 kts 186°
2026-05-08 08:16 -1.96111 36.23916 36106 ft 459 kts 186°
2026-05-08 08:17 -2.02423 36.23285 36100 ft 459 kts 186°
2026-05-08 08:17 -2.08779 36.22651 36093 ft 458 kts 186°
2026-05-08 08:18 -2.15126 36.22018 36092 ft 458 kts 186°
2026-05-08 08:18 -2.21470 36.21384 36090 ft 458 kts 186°
2026-05-08 08:19 -2.27805 36.20750 36082 ft 458 kts 186°
2026-05-08 08:19 -2.34114 36.20119 36084 ft 458 kts 186°
2026-05-08 08:20 -2.40453 36.19484 36084 ft 458 kts 186°
2026-05-08 08:20 -2.46797 36.18850 36083 ft 458 kts 186°
2026-05-08 08:21 -2.53138 36.18215 36081 ft 458 kts 186°
2026-05-08 08:21 -2.59446 36.17584 36086 ft 459 kts 186°
2026-05-08 08:22 -2.65804 36.16947 36086 ft 459 kts 186°
2026-05-08 08:22 -2.72155 36.16311 36085 ft 459 kts 186°
2026-05-08 08:23 -2.78509 36.15679 36087 ft 459 kts 186°
2026-05-08 08:23 -2.84877 36.15046 36091 ft 459 kts 186°
2026-05-08 08:24 -2.91195 36.14417 36092 ft 459 kts 186°
2026-05-08 08:24 -2.97551 36.13785 36092 ft 459 kts 186°
2026-05-08 08:25 -3.03908 36.13153 36095 ft 459 kts 186°
2026-05-08 08:25 -3.10260 36.12521 36088 ft 459 kts 186°
2026-05-08 08:26 -3.16599 36.11806 36089 ft 459 kts 187°